Location: Florida Caverns State Park
(30.8073°N, 85.2161°W)
Time: 19:45:29
(UTC-04:00)

N. Korean satellite - Visible Passes

Search period start: 21 March 2019 00:00
Search period end: 31 March 2019 00:00
Orbit: 456 x 510 km, 97.2° (Epoch: 20 March)

Date Brightness Start Highest point End Pass type
(mag) Time Alt. Az. Time Alt. Az. Time Alt. Az.
22 Mar 9.7 07:02:16 10° NE 07:04:54 19° E 07:07:32 10° SE visible
26 Mar 9.8 06:56:40 10° NE 06:59:00 16° E 07:01:22 10° SE visible
30 Mar 10.0 06:51:06 10° ENE 06:53:04 14° E 06:55:02 10° SE visible
